User: anonymous   Login
Location: Meetinghouse Hill
(42.7686°N, 71.7752°W)
Time: 11:50:50
(UTC-04:00)
Language:

Iridium 34 - Orbit

View from above orbital plane
View from above orbital plane
View from above satellite
View from above satellite

Ground track
Ground track

The orbit data is extracted from the following two-line orbital elements,

1 24969U 97056E   16177.33260590  .00000071  00000-0  18177-4 0  9993
2 24969  86.3978 108.0126 0002239  84.9436 275.2016 14.34218272981387
Epoch (UTC): 25 June 2016 07:58:57
Eccentricity: 0.0002239
inclination: 86.3978°
perigee height: 776 km
apogee height: 779 km
right ascension of ascending node: 108.0126°
argument of perigee: 84.9436°
revolutions per day: 14.34218272
mean anomaly at epoch: 275.2016°
orbit number at epoch: 98138

The dashed part of the orbit path shows where the satellite is in the earth's shadow,  

DLR